This is the latest recevied weather packets stored in our database for station/object OE5HCE. If no packets are shown the sender has not sent any weather packets the latest 10 day(s).
| Time | Temp. | Humidity | Pressure | Rain* | Wind** | Luminosity | Snow |
|---|---|---|---|---|---|---|---|
| 1787956237 | 17.78° C | 62% | 1018.2 hPa | 1.27 mm | - | 0 W/m² | - |
| 1787955336 | 18.89° C | 61% | 1017.4 hPa | 0.51 mm | - | 0 W/m² | - |
| 1787954428 | 19.44° C | 59% | 1017.3 hPa | 0 mm | - | 0 W/m² | - |
| 1787953525 | 19.44° C | 57% | 1016.6 hPa | 0 mm | - | 0 W/m² | - |
| 1787952622 | 19.44° C | 59% | 1016.1 hPa | 0 mm | - | 0 W/m² | - |
| 1787951721 | 19.44° C | 61% | 1015.8 hPa | 0 mm | - | 0 W/m² | - |
| 1787950819 | 19.44° C | 64% | 1015.5 hPa | 0 mm | - | 0 W/m² | - |
| 1787949919 | 19.44° C | 65% | 1015.3 hPa | 0 mm | - | 0 W/m² | - |
| 1787949014 | 19.44° C | 66% | 1014.6 hPa | 0 mm | - | 0 W/m² | - |
| 1787948112 | 20° C | 67% | 1014.5 hPa | 0 mm | - | 0 W/m² | - |
| 1787947211 | 20° C | 69% | 1013.9 hPa | 0 mm | - | 0 W/m² | - |
| 1787946310 | 20° C | 70% | 1013.9 hPa | 0 mm | - | 0 W/m² | - |
| 1787945411 | 20° C | 71% | 1014.1 hPa | 0 mm | - | 0 W/m² | - |
| 1787944515 | 20° C | 72% | 1014.3 hPa | 0 mm | - | 0 W/m² | - |
| 1787943613 | 19.44° C | 72% | 1014.4 hPa | 0 mm | - | 0 W/m² | - |
| 1787942709 | 19.44° C | 71% | 1014.3 hPa | 0 mm | - | 0 W/m² | - |
| 1787941809 | 20° C | 70% | 1014.1 hPa | 0 mm | - | 0 W/m² | - |
| 1787940907 | 20° C | 70% | 1014.1 hPa | 0 mm | - | 0 W/m² | - |
| 1787940006 | 20° C | 70% | 1014.2 hPa | 0 mm | - | 0 W/m² | - |
| 1787939106 | 20° C | 70% | 1014.4 hPa | 0 mm | - | 5 W/m² | - |
| 1787938207 | 19.44° C | 72% | 1014.3 hPa | 0 mm | - | 14 W/m² | - |
| 1787937305 | 20° C | 72% | 1014.4 hPa | 0 mm | - | 35 W/m² | - |
| 1787936405 | 20.56° C | 72% | 1014.4 hPa | 0 mm | - | 49 W/m² | - |
| 1787935502 | 21.11° C | 71% | 1014.4 hPa | 1.27 mm | - | 63 W/m² | - |
| 1787934669 | 21.11° C | 66% | 1014.5 hPa | 2.29 mm | - | 56 W/m² | - |
* Rain latest hour (hover to see other rain measurements)
** Current wind speed in m/s (hover to see current wind gust speed)